This demonstration page uses our WeatherBlox Daily Observations layout. Learn more.

40.92945, -100.16068

Hourly Observations for February 21, 2020

Temp ( °F °C ) Dew Point ( °F °C ) Humidity (%) Winds ( mph kmh ) Pressure ( in mb ) Visibility ( mi km ) Precip ( " mm )
12:15 am 00:15 Clear 24 -4.3 20 -6.7 84 84 SSW 16 26 30.65 1038 10 16.0934 0 0
12:35 am 00:35 Clear 24 -4.5 19 -7 83 83 SSW 16 26 30.65 1038 10 16.0934 0 0
12:55 am 00:55 Clear 24 -4.5 19 -7 83 83 SSW 15 24 30.64 1038 10 16.0934 0 0
1:15 am 01:15 Clear 23 -4.8 19 -7.2 84 84 SSW 14 22 30.64 1038 10 16.0934 0 0
1:35 am 01:35 Clear 23 -5.2 19 -7.4 85 85 SSW 15 24 30.63 1037 10 16.0934 0 0
1:55 am 01:55 Clear 22 -5.3 19 -7.5 85 85 SSW 15 24 30.63 1037 10 16.0934 0 0
2:15 am 02:15 Clear 22 -5.5 18 -7.6 85 85 SSW 13 20 30.63 1037 10 16.0934 0 0
2:35 am 02:35 Clear 22 -5.7 18 -7.7 86 86 SSW 10 17 30.62 1037 10 16.0934 0 0
2:55 am 02:55 Clear 21 -6 18 -7.9 87 87 SSW 9 15 30.61 1037 10 16.0934 0 0
3:15 am 03:15 Clear 20 -6.6 17 -8.2 89 89 SSW 7 11 30.61 1036 10 16.0934 0 0
3:35 am 03:35 Clear 20 -6.9 17 -8.4 89 89 SSW 7 11 30.6 1036 10 16.0934 0 0
3:55 am 03:55 Clear 20 -6.6 17 -8.2 89 89 SSW 7 11 30.59 1036 10 16.0934 0 0
4:15 am 04:15 Clear 21 -5.9 18 -8 85 85 SW 10 17 30.57 1035 10 16.0934 0 0
4:35 am 04:35 Clear 22 -5.6 18 -7.8 85 85 SW 12 19 30.56 1035 10 16.0934 0 0
4:55 am 04:55 Clear 23 -5.1 18 -7.6 83 83 SW 13 20 30.55 1035 10 16.0934 0 0
5:15 am 05:15 Clear 23 -5 19 -7.5 83 83 SW 12 19 30.54 1034 10 16.0934 0 0
5:35 am 05:35 Clear 22 -5.7 18 -7.8 85 85 SW 7 11 30.55 1034 10 16.0934 0 0
5:55 am 05:55 Clear 21 -5.9 18 -7.9 86 86 SW 8 13 30.53 1034 10 16.0934 0 0
6:15 am 06:15 Clear 21 -5.9 18 -7.7 87 87 SSW 9 15 30.53 1034 10 16.0934 0 0
6:35 am 06:35 Clear 22 -5.8 18 -7.7 87 87 SSW 6 9 30.52 1033 10 16.0934 0 0
6:55 am 06:55 Clear 22 -5.4 19 -7.4 86 86 SW 7 11 30.51 1033 10 16.0934 0 0
7:15 am 07:15 Clear 22 -5.8 18 -7.8 86 86 Calm 30.51 1033 10 16.0934 0 0
7:35 am 07:35 Sunny 20 -6.9 17 -8.5 89 89 WSW 7 11 30.52 1034 10 16.0934 0 0
7:55 am 07:55 Sunny 21 -6.2 18 -8 87 87 WSW 7 11 30.52 1034 10 16.0934 0 0
8:15 am 08:15 Sunny 22 -5.7 18 -7.6 87 87 SW 3 6 30.51 1033 10 16.0934 0 0
8:35 am 08:35 Sunny 24 -4.6 19 -7 84 84 WSW 7 11 30.51 1033 10 16.0934 0 0
8:55 am 08:55 Sunny 25 -3.7 20 -6.6 81 81 WSW 6 9 30.51 1033 10 16.0934 0 0
9:15 am 09:15 Sunny 26 -3.3 20 -6.6 78 78 WSW 3 6 30.49 1033 10 16.0934 0 0
9:35 am 09:35 Sunny 28 -2.1 22 -5.8 76 76 WSW 9 15 30.47 1032 10 16.0934 0 0
9:55 am 09:55 Sunny 30 -1.2 22 -5.4 73 73 WSW 9 15 30.46 1031 10 16.0934 0 0
10:15 am 10:15 Sunny 32 0 23 -4.8 70 70 WSW 8 13 30.44 1031 10 16.0934 0 0
10:35 am 10:35 Sunny 34 0.9 25 -4.1 70 70 WSW 10 17 30.43 1030 10 16.0934 0 0
10:55 am 10:55 Sunny 36 2.1 25 -3.7 66 66 SW 9 15 30.41 1030 10 16.0934 0 0
11:15 am 11:15 Sunny 38 3.5 26 -3.1 62 62 SW 13 20 30.38 1029 10 16.0934 0 0
11:35 am 11:35 Sunny 41 4.8 27 -2.7 59 59 SSW 17 28 30.36 1028 10 16.0934 0 0
11:55 am 11:55 Sunny 42 5.6 27 -2.9 55 55 SW 13 20 30.35 1028 10 16.0934 0 0
12:15 pm 12:15 Sunny 43 6.1 27 -2.6 54 54 WSW 12 19 30.35 1028 10 16.0934 0 0
12:35 pm 12:35 Sunny 44 6.7 27 -2.6 52 52 WSW 13 20 30.33 1027 10 16.0934 0 0
12:55 pm 12:55 Sunny 46 7.5 28 -2.3 50 50 WSW 14 22 30.3 1026 10 16.0934 0 0
1:15 pm 13:15 Sunny 47 8.3 28 -2.2 48 48 SW 14 22 30.28 1025 10 16.0934 0 0
1:35 pm 13:35 Sunny 48 9.1 28 -2 46 46 SSW 14 22 30.25 1024 10 16.0934 0 0
1:55 pm 13:55 Sunny 49 9.4 28 -2.4 44 44 SW 6 9 30.24 1024 10 16.0934 0 0
2:15 pm 14:15 Sunny 50 10.1 28 -2.4 42 42 W 8 13 30.22 1023 10 16.0934 0 0
2:35 pm 14:35 Sunny 51 10.5 28 -2.5 40 40 SW 5 7 30.21 1023 10 16.0934 0 0
2:55 pm 14:55 Sunny 52 11 27 -2.9 38 38 WSW 7 11 30.19 1022 10 16.0934 0 0
3:15 pm 15:15 Sunny 53 11.6 27 -2.8 37 37 SSW 9 15 30.19 1022 10 16.0934 0 0
3:35 pm 15:35 Sunny 53 11.4 26 -3.3 36 36 WSW 9 15 30.19 1022 10 16.0934 0 0
3:55 pm 15:55 Sunny 54 12 26 -3.4 34 34 SW 8 13 30.18 1022 10 16.0934 0 0
4:15 pm 16:15 Sunny 54 12.1 27 -2.7 36 36 S 12 19 30.16 1021 10 16.0934 0 0
4:35 pm 16:35 Sunny 54 12.2 28 -2.4 36 36 S 10 17 30.16 1021 10 16.0934 0 0
4:55 pm 16:55 Sunny 54 12 27 -2.7 36 36 SSW 13 20 30.14 1021 10 16.0934 0 0
5:15 pm 17:15 Sunny 53 11.8 27 -2.9 36 36 S 8 13 30.13 1020 10 16.0934 0 0
5:35 pm 17:35 Sunny 51 10.6 28 -2.1 41 41 S 10 17 30.15 1021 10 16.0934 0 0
5:55 pm 17:55 Sunny 48 8.8 28 -2 47 47 S 10 17 30.16 1021 10 16.0934 0 0
6:15 pm 18:15 Sunny 43 6.2 27 -2.7 53 53 S 7 11 30.2 1023 10 16.0934 0 0
6:35 pm 18:35 Clear 40 4.2 26 -3.3 59 59 S 8 13 30.23 1024 10 16.0934 0 0
6:55 pm 18:55 Clear 37 2.6 26 -3.6 64 64 S 9 15 30.24 1024 10 16.0934 0 0
7:15 pm 19:15 Clear 39 4 28 -2.1 65 65 SSW 10 17 30.23 1024 10 16.0934 0 0
7:35 pm 19:35 Clear 38 3.4 28 -2.1 68 68 S 9 15 30.23 1024 10 16.0934 0 0
7:55 pm 19:55 Clear 37 3 29 -1.9 71 71 S 10 17 30.24 1024 10 16.0934 0 0
8:15 pm 20:15 Clear 37 3 29 -1.6 72 72 S 9 15 30.24 1024 10 16.0934 0 0
8:35 pm 20:35 Clear 37 2.8 29 -1.5 74 74 S 9 15 30.24 1024 10 16.0934 0 0
8:55 pm 20:55 Clear 36 2.2 29 -1.6 76 76 S 6 9 30.25 1024 10 16.0934 0 0
9:15 pm 21:15 Clear 36 2.3 30 -1.2 78 78 SSW 9 15 30.24 1024 10 16.0934 0 0
9:35 pm 21:35 Clear 38 3.3 30 -1 74 74 SSW 12 19 30.22 1024 10 16.0934 0 0
9:55 pm 21:55 Clear 37 3 30 -1.1 75 75 SSW 9 15 30.23 1024 10 16.0934 0 0
10:15 pm 22:15 Clear 36 2.1 29 -1.5 77 77 S 6 9 30.24 1024 10 16.0934 0 0
10:35 pm 22:35 Clear 36 2.1 29 -1.5 77 77 SW 3 6 30.24 1024 10 16.0934 0 0
10:55 pm 22:55 Clear 33 0.5 28 -2.5 81 81 Calm 30.25 1024 10 16.0934 0 0
11:15 pm 23:15 Clear 29 -1.5 24 -4.3 81 81 Calm 30.26 1025 10 16.0934 0 0
11:35 pm 23:35 Clear 30 -1.3 27 -2.9 89 89 Calm 30.24 1024 10 16.0934 0 0
11:55 pm 23:55 Clear 28 -2.3 26 -3.5 92 92 Calm 30.25 1024 10 16.0934 0 0

Powered by AerisWeather